[Date Prev][Date Next][Thread Prev][Thread Next] - [Date Index][Thread Index][Author Index]

2 Line ISS Keps 10-18



ISS
1 25544U 98067A   01291.62736219  .00059475  00000-0  80187-3 0  6173
2 25544  51.6403 187.7348 0007981 215.0253 222.1875 15.57199641166347


----
Via the sarex mailing list at AMSAT.ORG courtesy of AMSAT-NA.
To unsubscribe, send "unsubscribe sarex" to Majordomo@amsat.org



AMSAT Top AMSAT Home